Weather History for Branson, MO

Change the Weather History Date:

Saturday, July 20, 2013

  Actual Average (KHRO) Record (KHRO)
Temperature  
Mean Temperature 81 °F 79 °F  
Max Temperature 93 °F 89 °F 104 °F (2006)
Min Temperature 69 °F 68 °F 52 °F (1947)
Degree Days  
Heating Degree Days 0 0  
Month to date heating degree days 0  
Since 1 June heating degree days 6  
Since 1 July heating degree days 0  
Cooling Degree Days 16 14  
Month to date cooling degree days 261  
Year to date cooling degree days 665  
Since 1 June cooling degree days 526  
Growing Degree Days 31 (Base 50)    
Moisture  
Dew Point 67 °F    
Average Humidity 77    
Maximum Humidity 94    
Minimum Humidity 41    
Precipitation  
Precipitation 0.00 in 0.10 in 3.40 in (1925)
Month to date precipitation 2.00  
Year to date precipitation 24.24  
Snow  
Snow 0.00 in 0.00 in - ()
Month to date snowfall 0.0  
Since 1 June snowfall 0.0  
Since 1 July snowfall 0.0  
Snow Depth -    
Sea Level Pressure  
Sea Level Pressure 29.98 in    
Wind  
Wind Speed 3 mph (WSW)    
Max Wind Speed 21 mph    
Max Gust Speed 30 mph    
Visibility 10 miles    
Events Thunderstorm    
T = Trace of Precipitation, MM = Missing Value Source: NWS Daily Summary

Daily Weather History Graph

Daily Weather History Graph

Search for Another Location

Airport:

Trip Planner

Search our weather history database for the weather conditions in past years. The results will help you decide how hot, cold, wet, or windy it might be!

Date:

Astronomy

Jul. 20, 2013 Rise Set
Actual Time 6:09 AM CDT 8:28 PM CDT
Civil Twilight 5:40 AM CDT 8:57 PM CDT
Nautical Twilight 5:04 AM CDT 9:33 PM CDT
Astronomical Twilight 4:24 AM CDT 10:12 PM CDT
Moon 6:32 PM CDT (7/20) 3:50 AM CDT (7/20)
Length of Visible Light 15h 16m
Length of Day
14h 18m
Waxing Gibbous, 94% of the Moon is Illuminated
Jul 20
Waxing Gibbous
Jul 22
Full
Jul 29
Last Quarter
Aug 6
New
Aug 14
First Quarter

Hourly Weather History & Observations

Time (CDT) Temp. Heat Index Dew Point Humidity Pressure Visibility Wind Dir Wind Speed Gust Speed Precip Events Conditions
12:15 AM 69.8 °F - 68.0 °F 94% 30.00 in 10.0 mi Calm Calm - N/A   Clear
12:35 AM 69.8 °F - 68.0 °F 94% 30.00 in 10.0 mi Calm Calm - N/A   Partly Cloudy
12:55 AM 69.8 °F - 68.0 °F 94% 30.00 in 10.0 mi Calm Calm - N/A   Partly Cloudy
1:15 AM 69.8 °F - 68.0 °F 94% 30.00 in 10.0 mi Calm Calm - N/A   Scattered Clouds
1:35 AM 69.8 °F - 66.2 °F 88% 30.00 in 10.0 mi SW 3.5 mph - N/A   Scattered Clouds
1:55 AM 69.8 °F - 66.2 °F 88% 30.00 in 10.0 mi Calm Calm - N/A   Partly Cloudy
2:15 AM 71.6 °F - 66.2 °F 83% 30.00 in 10.0 mi Calm Calm - N/A   Mostly Cloudy
2:35 AM 71.6 °F - 66.2 °F 83% 29.99 in 10.0 mi Calm Calm - N/A   Mostly Cloudy
2:55 AM 71.6 °F - 66.2 °F 83% 29.99 in 10.0 mi SW 4.6 mph - N/A   Partly Cloudy
3:15 AM 71.6 °F - 66.2 °F 83% 29.99 in 10.0 mi SW 3.5 mph - N/A   Clear
3:35 AM 71.6 °F - 66.2 °F 83% 29.98 in 10.0 mi SW 3.5 mph - N/A   Scattered Clouds
3:55 AM 71.6 °F - 66.2 °F 83% 29.98 in 10.0 mi Calm Calm - N/A   Overcast
4:15 AM 73.4 °F - 66.2 °F 78% 29.98 in 10.0 mi WSW 4.6 mph - N/A   Overcast
4:35 AM 73.4 °F - 66.2 °F 78% 29.98 in 10.0 mi WSW 5.8 mph - N/A   Overcast
4:55 AM 73.4 °F - 66.2 °F 78% 29.98 in 10.0 mi WSW 5.8 mph - N/A   Mostly Cloudy
5:15 AM 73.4 °F - 66.2 °F 78% 29.98 in 10.0 mi WSW 5.8 mph - N/A   Scattered Clouds
5:35 AM 73.4 °F - 66.2 °F 78% 29.98 in 10.0 mi WSW 5.8 mph - N/A   Clear
5:55 AM 73.4 °F - 66.2 °F 78% 29.99 in 10.0 mi West 3.5 mph - N/A   Partly Cloudy
6:15 AM 73.4 °F - 66.2 °F 78% 29.99 in 10.0 mi WSW 4.6 mph - N/A   Partly Cloudy
6:35 AM 73.4 °F - 66.2 °F 78% 29.99 in 10.0 mi WSW 5.8 mph - N/A   Clear
6:50 AM 73.4 °F - 66.2 °F 78% 29.99 in 10.0 mi WSW 5.8 mph - N/A   Mostly Cloudy
7:45 AM 73.4 °F - 66.2 °F 78% 29.99 in 10.0 mi WSW 4.6 mph - N/A   Mostly Cloudy
8:45 AM 77.0 °F - 66.2 °F 69% 30.00 in 10.0 mi WSW 6.9 mph - N/A   Mostly Cloudy
9:45 AM 77.0 °F - 66.2 °F 69% 30.01 in 10.0 mi West 8.1 mph - N/A   Mostly Cloudy
10:45 AM 80.6 °F 82.7 °F 66.2 °F 61% 30.01 in 10.0 mi WSW 6.9 mph - N/A   Scattered Clouds
11:51 AM 84.2 °F 87.3 °F 68.0 °F 58% 30.00 in 10.0 mi WSW 9.2 mph - N/A   Mostly Cloudy
12:53 PM 87.8 °F 91.4 °F 68.0 °F 52% 29.98 in 10.0 mi WSW 9.2 mph - N/A   Mostly Cloudy
1:45 PM 89.6 °F 93.4 °F 68.0 °F 49% 29.96 in 10.0 mi WSW 3.5 mph - N/A   Mostly Cloudy
2:45 PM 89.6 °F 93.4 °F 68.0 °F 49% 29.92 in 10.0 mi West 4.6 mph - N/A   Mostly Cloudy
3:25 PM 93.2 °F 96.2 °F 66.2 °F 41% 29.93 in 10.0 mi NW 16.1 mph 25.3 mph N/A Thunderstorm Thunderstorm
3:45 PM 80.6 °F 82.7 °F 66.2 °F 61% 29.94 in 10.0 mi NNW 20.7 mph 29.9 mph N/A Thunderstorm Thunderstorm
4:48 PM 77.0 °F - 66.2 °F 69% 29.91 in 10.0 mi SSE 8.1 mph - N/A Thunderstorm Thunderstorm
5:54 PM 75.2 °F - 68.0 °F 78% 29.92 in 10.0 mi SE 5.8 mph - N/A   Mostly Cloudy
6:51 PM 75.2 °F - 68.0 °F 78% 29.93 in 10.0 mi SE 8.1 mph - N/A   Mostly Cloudy
7:48 PM 73.4 °F - 68.0 °F 83% 29.94 in 10.0 mi SSE 13.8 mph - N/A   Mostly Cloudy
8:46 PM 71.6 °F - 68.0 °F 88% 29.95 in 10.0 mi SSW 4.6 mph - N/A   Overcast
8:55 PM 71.6 °F - 68.0 °F 88% 29.98 in 10.0 mi West 3.5 mph - N/A   Scattered Clouds
9:15 PM 73.4 °F - 68.0 °F 83% 29.98 in 10.0 mi Calm Calm - N/A   Mostly Cloudy
9:35 PM 73.4 °F - 66.2 °F 78% 30.00 in 10.0 mi NW 3.5 mph - N/A   Mostly Cloudy
9:55 PM 73.4 °F - 68.0 °F 83% 30.00 in 10.0 mi NE 3.5 mph - N/A   Overcast
10:15 PM 73.4 °F - 68.0 °F 83% 30.00 in 10.0 mi Calm Calm - N/A   Mostly Cloudy
10:35 PM 73.4 °F - 68.0 °F 83% 29.99 in 10.0 mi NW 4.6 mph - N/A   Mostly Cloudy
10:55 PM 73.4 °F - 66.2 °F 78% 29.99 in 10.0 mi Calm Calm - N/A   Overcast
11:15 PM 73.4 °F - 66.2 °F 78% 29.98 in 10.0 mi NW 3.5 mph - N/A   Mostly Cloudy
11:35 PM 71.6 °F - 66.2 °F 83% 29.98 in 10.0 mi Calm Calm - N/A   Partly Cloudy
11:55 PM 71.6 °F - 68.0 °F 88% 29.98 in 10.0 mi Calm Calm - N/A   Clear